Weather History for Hammond, LA

Change the Weather History Date:

Sunday, March 16, 2014

  Actual Average (KMSY) Record (KMSY)
Temperature  
Mean Temperature 70 °F -  
Max Temperature 82 °F 70 °F 87 °F (1955)
Min Temperature 57 °F 52 °F 38 °F (1988)
Cooling Degree Days 6    
Growing Degree Days 20 (Base 50)    
Moisture  
Dew Point 58 °F    
Average Humidity 68    
Maximum Humidity 94    
Minimum Humidity 30    
Precipitation  
Precipitation 0.07 in - - ()
Sea Level Pressure  
Sea Level Pressure 29.71 in    
Wind  
Wind Speed 11 mph (West)    
Max Wind Speed 21 mph    
Max Gust Speed 31 mph    
Visibility 10 miles    
Events Rain , Thunderstorm    
Averages and records for this station are not official NWS values.
T = Trace of Precipitation, MM = Missing Value Source: NWS Daily Summary

Daily Weather History Graph

Daily Weather History Graph

Search for Another Location

Airport:

Trip Planner

Search our weather history database for the weather conditions in past years. The results will help you decide how hot, cold, wet, or windy it might be!

Date:

Astronomy

Mar. 16, 2014 Rise Set
Actual Time 7:10 AM CDT 7:10 PM CDT
Civil Twilight 6:46 AM CDT 7:34 PM CDT
Nautical Twilight 6:18 AM CDT 8:02 PM CDT
Astronomical Twilight 5:50 AM CDT 8:30 PM CDT
Moon 7:24 PM CDT (3/16) 6:55 AM CDT (3/16)
Length of Visible Light 12h 48m
Length of Day
12h 00m
Full, 100% of the Moon is Illuminated
Mar 16
Full
Mar 16
Full
Mar 23
Last Quarter
Mar 30
New
Apr 7
First Quarter

Hourly Weather History & Observations

Time (CDT) Temp. Dew Point Humidity Pressure Visibility Wind Dir Wind Speed Gust Speed Precip Events Conditions
12:15 AM 66.2 °F 62.6 °F 88% 29.80 in 7.0 mi SE 13.8 mph 17.3 mph N/A   Overcast
12:35 AM 66.2 °F 62.6 °F 88% 29.78 in 10.0 mi SE 12.7 mph - N/A   Overcast
1:15 AM 66.2 °F 62.6 °F 88% 29.76 in 10.0 mi SSE 11.5 mph 17.3 mph N/A   Overcast
1:35 AM 66.2 °F 62.6 °F 88% 29.76 in 7.0 mi SSE 9.2 mph - 0.01 in Rain Light Rain
1:55 AM 66.2 °F 64.4 °F 94% 29.75 in 10.0 mi SSE 16.1 mph 19.6 mph 0.01 in Rain Light Rain
2:15 AM 68.0 °F 64.4 °F 88% 29.75 in 10.0 mi SSE 13.8 mph - N/A   Overcast
2:35 AM 68.0 °F 64.4 °F 88% 29.74 in 7.0 mi South 11.5 mph 17.3 mph 0.04 in Rain Heavy Rain
2:55 AM 68.0 °F 64.4 °F 88% 29.74 in 10.0 mi South 10.4 mph 16.1 mph 0.05 in   Overcast
3:15 AM 68.0 °F 64.4 °F 88% 29.73 in 10.0 mi South 12.7 mph 17.3 mph N/A   Overcast
3:35 AM 68.0 °F 64.4 °F 88% 29.70 in 10.0 mi South 15.0 mph 23.0 mph N/A   Mostly Cloudy
3:55 AM 68.0 °F 64.4 °F 88% 29.69 in 10.0 mi South 12.7 mph 21.9 mph N/A Thunderstorm Mostly Cloudy
4:15 AM 69.8 °F 64.4 °F 83% 29.69 in 10.0 mi SSW 20.7 mph 26.5 mph N/A   Overcast
4:35 AM 69.8 °F 64.4 °F 83% 29.69 in 10.0 mi South 16.1 mph 24.2 mph N/A   Overcast
4:55 AM 69.8 °F 64.4 °F 83% 29.70 in 10.0 mi SSW 13.8 mph 19.6 mph N/A   Overcast
5:15 AM 69.8 °F 66.2 °F 88% 29.71 in 10.0 mi SSW 17.3 mph 23.0 mph N/A   Overcast
5:35 AM 71.6 °F 66.2 °F 83% 29.71 in 10.0 mi SW 9.2 mph 21.9 mph N/A Rain Rain
5:55 AM 71.6 °F 66.2 °F 83% 29.71 in 10.0 mi SW 11.5 mph 18.4 mph N/A   Overcast
6:15 AM 71.6 °F 66.2 °F 83% 29.72 in 10.0 mi SW 13.8 mph 18.4 mph N/A Thunderstorm Overcast
6:35 AM 71.6 °F 66.2 °F 83% 29.71 in 10.0 mi WSW 6.9 mph - N/A Thunderstorm Unknown
7:15 AM 69.8 °F 66.2 °F 88% 29.71 in 10.0 mi West 11.5 mph 17.3 mph N/A   Mostly Cloudy
7:35 AM 71.6 °F 66.2 °F 83% 29.72 in 10.0 mi WSW 8.1 mph 17.3 mph N/A   Mostly Cloudy
7:55 AM 71.6 °F 66.2 °F 83% 29.71 in 10.0 mi WSW 9.2 mph - N/A   Mostly Cloudy
8:15 AM 71.6 °F 66.2 °F 83% 29.73 in 10.0 mi West 11.5 mph 20.7 mph N/A   Mostly Cloudy
8:35 AM 71.6 °F 66.2 °F 83% 29.73 in 10.0 mi WSW 11.5 mph - N/A   Mostly Cloudy
8:55 AM 71.6 °F 66.2 °F 83% 29.74 in 10.0 mi NW 10.4 mph - N/A   Mostly Cloudy
9:15 AM 69.8 °F 64.4 °F 83% 29.75 in 10.0 mi WNW 10.4 mph - N/A Rain Light Rain
9:35 AM 69.8 °F 64.4 °F 83% 29.74 in 10.0 mi West 12.7 mph 18.4 mph 0.01 in   Mostly Cloudy
9:55 AM 71.6 °F 64.4 °F 78% 29.74 in 10.0 mi WNW 17.3 mph 21.9 mph 0.01 in   Mostly Cloudy
10:15 AM 71.6 °F 64.4 °F 78% 29.74 in 10.0 mi WNW 13.8 mph 29.9 mph N/A   Mostly Cloudy
10:35 AM 75.2 °F 64.4 °F 69% 29.73 in 10.0 mi WNW 15.0 mph 25.3 mph N/A   Scattered Clouds
10:55 AM 73.4 °F 62.6 °F 69% 29.72 in 10.0 mi WNW 11.5 mph - N/A   Scattered Clouds
11:15 AM 75.2 °F 59.0 °F 57% 29.72 in 10.0 mi WNW 10.4 mph 20.7 mph N/A   Clear
11:35 AM 77.0 °F 57.2 °F 50% 29.73 in 10.0 mi West 12.7 mph 21.9 mph N/A   Clear
11:55 AM 78.8 °F 53.6 °F 42% 29.71 in 10.0 mi West 15.0 mph 23.0 mph N/A   Clear
12:15 PM 80.6 °F 50.0 °F 34% 29.70 in 10.0 mi West 15.0 mph 19.6 mph N/A   Clear
12:35 PM 80.6 °F 50.0 °F 34% 29.69 in 10.0 mi West 13.8 mph 19.6 mph N/A   Clear
12:55 PM 82.4 °F 48.2 °F 30% 29.68 in 10.0 mi West 20.7 mph 27.6 mph N/A   Clear
1:15 PM 78.8 °F 48.2 °F 34% 29.67 in 10.0 mi WNW 18.4 mph 31.1 mph N/A   Clear
1:55 PM 77.0 °F 46.4 °F 34% 29.64 in 10.0 mi WNW 11.5 mph 20.7 mph N/A   Clear
2:15 PM 78.8 °F 46.4 °F 32% 29.63 in 10.0 mi WSW 8.1 mph - N/A   Clear
2:35 PM 77.0 °F 44.6 °F 32% 29.61 in 10.0 mi WNW 6.9 mph - N/A   Clear
2:55 PM 77.0 °F 44.6 °F 32% 29.61 in 10.0 mi WNW 8.1 mph - N/A   Clear
3:15 PM 75.2 °F 46.4 °F 36% 29.61 in 10.0 mi WNW 8.1 mph - N/A   Scattered Clouds
3:35 PM 75.2 °F 50.0 °F 41% 29.64 in 10.0 mi West 9.2 mph - N/A   Light Drizzle
3:55 PM 73.4 °F 51.8 °F 47% 29.64 in 10.0 mi West 10.4 mph - N/A   Light Drizzle
4:15 PM 73.4 °F 51.8 °F 47% 29.65 in 10.0 mi West 4.6 mph - N/A Rain Light Rain
4:35 PM 71.6 °F 53.6 °F 53% 29.65 in 10.0 mi Calm Calm - N/A   Light Drizzle
4:55 PM 73.4 °F 51.8 °F 47% 29.66 in 10.0 mi Calm Calm - N/A   Mostly Cloudy
5:15 PM 71.6 °F 53.6 °F 53% 29.66 in 10.0 mi Calm Calm - N/A   Overcast
5:35 PM 69.8 °F 57.2 °F 64% 29.67 in 10.0 mi NW 5.8 mph - N/A   Light Drizzle
5:55 PM 69.8 °F 55.4 °F 60% 29.67 in 10.0 mi NW 3.5 mph - N/A   Mostly Cloudy
6:15 PM 69.8 °F 55.4 °F 60% 29.70 in 10.0 mi West 4.6 mph - N/A   Overcast
6:35 PM 68.0 °F 55.4 °F 64% 29.71 in 10.0 mi West 3.5 mph - N/A Rain Light Rain
6:55 PM 68.0 °F 55.4 °F 64% 29.70 in 10.0 mi NNW 8.1 mph - N/A   Overcast
7:15 PM 66.2 °F 55.4 °F 68% 29.70 in 10.0 mi NNW 5.8 mph - N/A   Scattered Clouds
7:35 PM 66.2 °F 55.4 °F 68% 29.70 in 10.0 mi WNW 3.5 mph - N/A   Scattered Clouds
7:55 PM 64.4 °F 55.4 °F 73% 29.71 in 10.0 mi WNW 5.8 mph - N/A   Clear
8:15 PM 66.2 °F 55.4 °F 68% 29.71 in 10.0 mi NW 8.1 mph - N/A   Clear
8:35 PM 64.4 °F 53.6 °F 68% 29.71 in 10.0 mi WNW 8.1 mph - N/A   Clear
8:55 PM 64.4 °F 53.6 °F 68% 29.72 in 10.0 mi WNW 8.1 mph - N/A   Clear
9:15 PM 64.4 °F 53.6 °F 68% 29.72 in 10.0 mi WNW 5.8 mph - N/A   Scattered Clouds
9:35 PM 64.4 °F 53.6 °F 68% 29.72 in 10.0 mi WNW 5.8 mph - N/A   Scattered Clouds
9:55 PM 62.6 °F 53.6 °F 72% 29.74 in 10.0 mi WNW 8.1 mph - N/A   Scattered Clouds
10:15 PM 62.6 °F 53.6 °F 72% 29.75 in 10.0 mi NW 10.4 mph - N/A   Mostly Cloudy
10:35 PM 62.6 °F 51.8 °F 68% 29.76 in 10.0 mi NW 12.7 mph 20.7 mph N/A   Overcast
10:55 PM 62.6 °F 51.8 °F 68% 29.77 in 10.0 mi NW 10.4 mph 17.3 mph N/A   Mostly Cloudy
11:15 PM 60.8 °F 50.0 °F 68% 29.77 in 10.0 mi NNW 10.4 mph 19.6 mph N/A   Mostly Cloudy
11:35 PM 59.0 °F 48.2 °F 67% 29.79 in 10.0 mi NW 15.0 mph 20.7 mph N/A   Scattered Clouds
11:55 PM 57.2 °F 48.2 °F 72% 29.79 in 10.0 mi NW 13.8 mph - N/A   Overcast